Home > Weather > Chorzów > Past weeks

Flag for Poland Weather for the Past 2 Weeks in Chorzów, Poland

Now
37 °F

Drizzle. Fog.


Feels Like: 35 °F
Forecast: 34 / 47 °F
Wind: 3 mph from Northeast

Location: Katowice Airport

Current Time: Feb 13, 2016 at 4:22:44 PM

Latest Report: Feb 13, 2016 at 4:00 PM


Visibility: 2 mi

Pressure: 29.33 "Hg

Humidity: 100%

Dew point: 37 °F

Location of ChorzówLocation

Historic Weather in Chorzów — Graph

°F

Chorzów Temperature Yesterday

Maximum temperature yesterday: 41 °F (at 12:00 PM)
Minimum temperature yesterday: 30 °F (at 3:30 AM)
Average temperature yesterday: 34 °F

High & Low Weather Summary for the Past Weeks

 TemperatureHumidityPressure
High54 °F (Jan 30, 2:00 PM)100% (Jan 31, 6:30 AM)30.27 "Hg (Jan 31, 6:30 AM)
Low30 °F (Feb 4, 12:30 AM)44% (Jan 30, 2:30 PM)29.24 "Hg (Feb 10, 3:30 AM)
Average40 °F79%29.81 "Hg
* Reported Jan 29 3:00 PM — Feb 13 3:00 PM, Chorzów, Weather by CustomWeather, © 2016

Note: Actual official high and low records may vary slightly from our data, if they occured in-between our weather recording intervals... More about our weather records

Advertising

Chorzów Weather History for the Previous 24 Hours

 ConditionsComfort  
Time TempWeatherWind HumidityBarometerVisibility
3:00 PM
Sat, Feb 13
37 °FLight rain. Fog.5 mph100%29.36 "Hg2 mi
2:30 PM39 °FLight rain. Broken clouds.3 mph93%29.36 "Hg4 mi
2:00 PM39 °FLight rain. Broken clouds.3 mph87%29.36 "Hg4 mi
1:30 PM37 °FLight rain. Fog.3 mph93%29.36 "Hg3 mi
1:00 PM37 °FLight rain. Fog.3 mph100%29.39 "Hg2 mi
12:30 PM37 °FLight rain. Fog.3 mph93%29.39 "Hg2 mi
12:00 PM37 °FFog.5 mph93%29.39 "Hg3 mi
11:30 AM37 °FPartly sunny.6 mph93%29.39 "Hg4 mi
11:00 AM37 °FPartly sunny.3 mph93%29.42 "Hg4 mi
10:30 AM36 °FBroken clouds.2 mph93%29.42 "HgN/A
10:00 AM36 °FLight rain. Scattered clouds.3 mph93%29.42 "HgN/A
9:30 AM36 °FLight rain. Partly sunny.3 mph93%29.42 "Hg4 mi
9:00 AM34 °FLight rain. Fog.5 mph100%29.42 "Hg2 mi
8:30 AM34 °FLight rain. Cloudy.3 mph93%29.42 "Hg1 mi
8:00 AM34 °FLight rain. Broken clouds.5 mph93%29.42 "Hg2 mi
7:30 AM32 °FLight rain. Ice fog.3 mph100%29.45 "Hg2 mi
7:00 AM32 °FLight rain. Ice fog.3 mph100%29.45 "Hg2 mi
6:30 AM32 °FLight rain. Ice fog.6 mph100%29.45 "Hg2 mi
6:00 AM32 °FLight rain. Ice fog.6 mph100%29.45 "Hg2 mi
5:30 AM32 °FIce fog.5 mph100%29.45 "Hg2 mi
5:00 AM32 °FIce fog.5 mph100%29.45 "Hg2 mi
4:30 AM34 °FFog.5 mph93%29.47 "Hg2 mi
4:00 AM32 °FIce fog.6 mph100%29.47 "Hg2 mi
3:30 AM32 °FIce fog.7 mph100%29.47 "Hg2 mi
3:00 AM34 °FLight rain. Fog.6 mph93%29.50 "Hg2 mi
2:30 AM32 °FLight rain. Ice fog.8 mph100%29.50 "Hg2 mi
2:00 AM32 °FLight rain. Ice fog.7 mph100%29.53 "Hg3 mi
1:00 AM32 °FLight snow. Ice fog.10 mph100%29.53 "Hg2 mi
12:00 AM34 °FLight rain. Partly cloudy.12 mph93%29.56 "Hg4 mi
11:00 PM
Fri, Feb 12
34 °FLight rain. Partly cloudy.8 mph93%29.56 "Hg4 mi
10:30 PM34 °FLight rain. Partly cloudy.8 mph100%29.56 "Hg5 mi
10:00 PM34 °FLight rain. Partly cloudy.12 mph93%29.59 "Hg4 mi
9:30 PM34 °FPassing clouds.9 mph100%29.59 "HgN/A
9:00 PM34 °FPassing clouds.9 mph93%29.59 "Hg5 mi
8:30 PM34 °FPassing clouds.10 mph93%29.59 "Hg5 mi
8:00 PM34 °FPartly cloudy.13 mph93%29.59 "HgN/A
7:30 PM34 °FPassing clouds.8 mph100%29.62 "Hg5 mi
7:00 PM34 °FPassing clouds.9 mph100%29.62 "Hg6 mi
6:30 PM34 °FPassing clouds.9 mph93%29.62 "Hg4 mi
6:00 PM34 °FPartly cloudy.9 mph100%29.62 "Hg4 mi
5:30 PM34 °FPartly cloudy.8 mph100%29.65 "Hg5 mi
5:00 PM36 °FRain. Fog.8 mph100%29.65 "Hg2 mi
4:30 PM36 °FScattered clouds.6 mph100%29.65 "Hg4 mi
4:00 PM36 °FPartly sunny.5 mph100%29.65 "Hg5 mi
Weather by CustomWeather, © 2016

See weather overviewHow to use our weather pages